Regional Weather Roundup
Issued by NWS Wilmington, NC

Home | Current Version | Previous Version | Text Only | Print | Product List | Glossary On
Versions: 1 2 3 4 5 6 7 8 9 10 11 12 13 14 15 16 17 18 19 20 21 22 23 24 25 26 27 28
000
ASUS42 KILM 280313
RWRILM
RWRILM
REGIONAL HOURLY WEATHER ROUNDUP
NATIONAL WEATHER SERVICE WILMINGTON NC
1100 PM EDT WED JUL 27 2016

NOTE: "FAIR" INDICATES FEW OR NO CLOUDS BELOW 12,000 FEET WITH NO
SIGNIFICANT WEATHER AND/OR OBSTRUCTIONS TO VISIBILITY.

...............WFO WILMINGTON COUNTY WARNING AREA...............

......COASTAL NC AND SC COUNTIES......

CITY           SKY/WX    TMP DP  RH WIND       PRES   REMARKS
WILMINGTON     CLEAR     83  77  82 SW9       29.97R HX  92
N MYRTLE BEACH CLEAR     84  80  88 SW9       29.98R HX  97
MYRTLE BEACH   NOT AVBL

......INLAND NC AND SC COUNTIES.......

CITY           SKY/WX    TMP DP  RH WIND       PRES   REMARKS
LUMBERTON      CLEAR     84  75  74 S5        29.95R HX  92
ELIZABETHTOWN  CLEAR     84  78  83 SE5       29.96S HX  95
WHITEVILLE     CLEAR     83  78  86 S3        29.97R HX  92
FLORENCE       CLEAR     85  75  72 S7        29.96S HX  93
DARLINGTON     CLEAR     84  76  76 SW7       29.96R HX  93
KINGSTREE      FAIR      79  73  83 CALM      29.97S
HARTSVILLE     FAIR      81  72  74 CALM      29.96S
BENNETTSVILLE  FAIR      86  77  74 S3        29.94S HX  97
CONWAY         FAIR      81  79  94 S5        29.98R
GEORGETOWN     NOT AVBL
MARION           N/A     82  73  74 S5        29.96S

....................REST OF NORTH CAROLINA......................

.........EASTERN NC.........

CITY           SKY/WX    TMP DP  RH WIND       PRES   REMARKS
CAPE HATTERAS  CLOUDY    80  74  81 W13G20    29.94S
JACKSONVILLE   MOCLDY    83  77  82 S7        29.96S HX  92
MOREHEAD CITY  LGT RAIN  75  72  90 N16G23      N/A
KENANSVILLE    NOT AVBL
NEW BERN       TSTM      76  73  91 SE12      30.02R
ELIZABETH CITY CLOUDY    83  78  85 S10       29.91F HX  93

.........CENTRAL NC.........

CITY           SKY/WX    TMP DP  RH WIND       PRES   REMARKS
RALEIGH DURHAM MOCLDY    77  70  79 NE5       29.97R
ROCKY MOUNT    PTCLDY    81  74  79 N5        29.94R
ROANOKE RAPIDS NOT AVBL
FAYETTEVILLE   CLEAR     86  74  67 S9        29.94S HX  94
HOFFMAN        CLEAR     85  74  68 S8        29.94S HX  92

.........WESTERN NC.........

CITY           SKY/WX    TMP DP  RH WIND       PRES   REMARKS
CHARLOTTE      PTCLDY    87  70  56 SW13      29.96S HX  92
GREENSBORO     PTCLDY    74  73  97 NE5       29.98R
HICKORY        NOT AVBL
BOONE          NOT AVBL
ASHEVILLE      NOT AVBL

.....................REST OF SOUTH CAROLINA.....................

.........EASTERN SC.........

CITY           SKY/WX    TMP DP  RH WIND       PRES   REMARKS
CHARLESTON     CLEAR     84  78  82 S7        29.99R HX  95
BEAUFORT MCAS  CLEAR     85  77  77 S7        30.00R HX  95
HILTON HEAD    CLEAR     86  79  79 VRB7G14   30.01S HX  99

.........CENTRAL SC.........

CITY           SKY/WX    TMP DP  RH WIND       PRES   REMARKS
COLUMBIA       CLEAR     87  70  56 W5        29.97R HX  92
ORANGEBURG     CLEAR     82  73  74 SW5       29.99R
SUMTER SHAW    CLEAR     86  72  63 S3        29.95S HX  92

.........WESTERN SC.........

CITY           SKY/WX    TMP DP  RH WIND       PRES   REMARKS
GREENVILLE     NOT AVBL
ROCK HILL      CLEAR     86  70  58 SW7       29.97F HX  90
ANDERSON       CLEAR     84  70  62 SW6       30.00R
CLEMSON        NOT AVBL
GREENWOOD      CLEAR     82  69  64 SW7       30.01R


...................COASTAL AND OFFSHORE REPORTS..................

................LOCAL PIERS AND NC RESERVE................


STATION/POSITION TIME  SKY/WX   TEMP    WIND        PRES    VSBY
                                AIR SEA DIR/SP/G
                 (UTC)          (F)     (DEG/KT/KT) (MB)    (MI)
JOHNY MRCER PIER 0200               80                N/A
NC RESRV MASNBRO 0145            83     250/  4     1014.0
OCEAN CREST PIER NOT AVBL
SPRINGMAID  PIER 0200               85                N/A


................COASTAL AND OFFSHORE BUOYS................


STATION/POSITION TIME  SKY/WX   TEMP    WIND        PRES    VSBY
                                AIR SEA DIR/SP/G
                 (UTC)          (F)     (DEG/KT/KT) (MB)    (MI)
DIMNDSHOAL 41025 0250            83 85  260/ 14/ 16 1013.8S
WVE H/P(F/S)=  3/ 6 SWL H/P/D(F/S/D)=  2/130/ 8

CAPE LOOKOUT     0300            78     360/ 20/ 24 1015.5F
ONSLOW BAY 41036 NOT AVBL
ONSLOW BAY 41064 0208            85 85  230/ 14/ 17 1015.0R
ONSLOW BAY 41159 0225               85                N/A
WVE H/P(F/S)=  5/ 6

5SE WRITBC 41038 NOT AVBL
MASNBO INL 41110 0206               80                N/A
WVE H/P(F/S)=  2/ 5

WILM HARBR 41108 0226               85                N/A
WVE H/P(F/S)=  4/ 5

27SE WRITB 41037 0208            84 84  230/ 12/ 17 1015.2R
FRYING PAN 41013 0200            85 85  230/ 12/ 16 1015.3R
SUNST NRSH 41024 0208            84 84  230/ 12/ 17 1014.6R
CAPRS NRSH 41029 0208            85 84  230/ 14/ 17 1015.2R
EDISTO     41004 0250            86 86  220/ 16/ 17 1015.2R
WVE H/P(F/S)=  3/ 4 SWL H/P/D(F/S/D)=  2/170/ 8



..........OFFSHORE BUOYS BEYOND 100 NM OFFSHORE...........
.....IN A TRIANGLE---HAT TO BERMUDA TO BAHAMAS TO HAT.....


STATION/POSITION TIME  SKY/WX   TEMP    WIND        PRES    VSBY
                                AIR SEA DIR/SP/G
                 (UTC)          (F)     (DEG/KT/KT) (MB)    (MI)
150E HAT   41001 NOT AVBL
W BERMUDA  41048 0250            83 85  280/  8/ 10 1015.8R
WVE H/P(F/S)=  2/ 6 SWL H/P/D(F/S/D)=  2/250/ 6

ATLANTIC S 41049 0250            83 85  310/  4/  6 1018.0F
WVE H/P(F/S)=  2/ 8 SWL H/P/D(F/S/D)=  2/110/ 8

E BAHAMAS  41046 0300            83 85   90/  6/  8 1018.1F
NE BAHAMAS 41047 0300            84 86  280/  4/  6 1017.9F
120E CANVRL41010 0220            86 87  170/  6/  8 1018.5R

END




USA.gov is the U.S. government's official web portal to all federal, state and local government web resources and services.